"Pseudo-MPEC" for C8KJY72

Created 2022 Dec 12 10:22:06 UT using Find_Orb

Click here for an explanation of pseudo-MPECs

 
 Astrometry: 
     C8KJY72*1C2022 12 01.33741605 02 46.093+01 12 35.03   ~C18q 20.01GVNEOCPG96
     C8KJY72 1C2022 12 01.34257105 02 43.422+01 13 21.29   ~C18q 20.06GVNEOCPG96
     C8KJY72 1C2022 12 01.34771405 02 40.722+01 14 08.30   ~C18q 20.27GVNEOCPG96
     C8KJY72 1C2022 12 01.35286205 02 38.065+01 14 54.71   ~C18q 20.09GVNEOCPG96
     C8KJY72 mC2022 12 01.41915805 02 04.081+01 24 50.40   ~C1AM 20.33GVNEOCPI52
     C8KJY72 mC2022 12 01.41950105 02 03.865+01 24 53.60   ~C1AM 20.12GVNEOCPI52
     C8KJY72 mC2022 12 01.41984505 02 03.703+01 24 56.52   ~C1AM 20.14GVNEOCPI52
     C8KJY72 mC2022 12 01.42018905 02 03.541+01 24 59.76   ~C1AM 20.00GVNEOCPI52

Station data:
(G96) Mt. Lemmon Survey  (N32.442751 W110.788720)  US/Arizona.  Observers T.
   A. Pruyne, B. M. Africano, E. J. Christensen, G. A. Farneth, D. C. Fuls,
   A. R. Gibbs, A. D. Grauer, H. Gröller, J. A. Johnson, R. A. Kowalski, S.
   M. Larson, G. J. Leonard, D. Rankin, R. L. Seaman, F. C. Shelly, K. W.
   Wierzchoś. 1.5-m reflector + 10K CCD.
(I52) Steward Observatory, Mt. Lemmon Station  (N32.442544 W110.788920)
   US/Arizona.  Observers T. A. Pruyne, B. M. Africano, E. J. Christensen, G.
   A. Farneth, D. C. Fuls, A. R. Gibbs, A. D. Grauer, H. Gröller, J. A.
   Johnson, R. A. Kowalski, S. M. Larson, G. J. Leonard, D. Rankin, R. L.
   Seaman, F. C. Shelly, K. W. Wierzchoś. 1.0-m reflector + CCD.

Orbital elements:  C8KJY72
   Perihelion 2022 Aug 22.50366 +/- 87.4 TT = 12:05:15 (JD 2459814.00366)
Epoch 2022 Dec  1.0 TT = JDT 2459914.5   Earth MOID: 0.0195      AutoNEOCP
M  99.69709272 +/- 90               (J2000 ecliptic)
n   0.99204696 +/- 0.344            Peri.  243.48954 +/- 70
a   0.99566802 +/- 0.23             Node    79.32119 +/- 39
e   0.0544339 +/- 0.234             Incl.    2.71062 +/- 19
P   0.99/362.88d           H 27.49  G  0.15   U 12.0  SR
q 0.94146984 +/- 0.202    Q 1.04986620 +/- 1.95
From 8 observations 2022 Dec. 1 (2.0 hr); mean residual 0".24
Residuals in arcseconds: 
221201 G96  .40-  .10-    221201 G96  .46+  .25+    221201 I52  .15-  .10-    
221201 G96  .07+  .36-    221201 I52  .38+  .07-    221201 I52  .01-  .05+    
221201 G96  .05-  .26+    221201 I52  .30-  .06+    

Ephemerides (geocentric):
Date (UTC) HH   RA             Dec           delta  r     elong  mag " sig PA
---- --------  ------------   ------------  ------ ------ -----  --- --------
2022 12 12 10  04 09 03.746   +21 23 29.20  .03416 1.0175 164.3 21.1  31d  18
2022 12 12 11  04 08 55.329   +21 26 29.26  .03421 1.0176 164.2 21.1  31d  18
2022 12 12 12  04 08 46.937   +21 29 28.77  .03426 1.0176 164.2 21.1  31d  18
2022 12 12 13  04 08 38.569   +21 32 27.72  .03431 1.0176 164.1 21.1  31d  18
2022 12 12 14  04 08 30.225   +21 35 26.12  .03436 1.0177 164.0 21.1  31d  18
2022 12 12 15  04 08 21.905   +21 38 23.97  .03441 1.0177 164.0 21.1  31d  17
2022 12 12 16  04 08 13.609   +21 41 21.27  .03447 1.0177 163.9 21.1  32d  17
2022 12 12 17  04 08 05.337   +21 44 18.03  .03452 1.0178 163.8 21.1  32d  17
2022 12 12 18  04 07 57.089   +21 47 14.24  .03457 1.0178 163.8 21.1  32d  17
2022 12 12 19  04 07 48.866   +21 50 09.90  .03462 1.0178 163.7 21.1  32d  17
2022 12 12 20  04 07 40.666   +21 53 05.03  .03467 1.0179 163.6 21.1  32d  17
2022 12 12 21  04 07 32.490   +21 55 59.61  .03472 1.0179 163.6 21.1  32d  17
2022 12 12 22  04 07 24.338   +21 58 53.65  .03478 1.0179 163.5 21.2  32d  17
2022 12 12 23  04 07 16.210   +22 01 47.16  .03483 1.0180 163.4 21.2  32d  17
2022 12 13 00  04 07 08.105   +22 04 40.14  .03488 1.0180 163.3 21.2  32d  17
2022 12 13 01  04 07 00.025   +22 07 32.57  .03493 1.0180 163.3 21.2  32d  17
2022 12 13 02  04 06 51.968   +22 10 24.48  .03498 1.0181 163.2 21.2  32d  16
2022 12 13 03  04 06 43.935   +22 13 15.86  .03504 1.0181 163.1 21.2  32d  16
2022 12 13 04  04 06 35.925   +22 16 06.71  .03509 1.0181 163.1 21.2  32d  16
2022 12 13 05  04 06 27.940   +22 18 57.03  .03514 1.0182 163.0 21.2  33d  16
2022 12 13 06  04 06 19.977   +22 21 46.82  .03519 1.0182 162.9 21.2  33d  16
2022 12 13 07  04 06 12.039   +22 24 36.09  .03525 1.0182 162.9 21.2  33d  16
2022 12 13 08  04 06 04.124   +22 27 24.84  .03530 1.0183 162.8 21.2  33d  16
2022 12 13 09  04 05 56.232   +22 30 13.07  .03535 1.0183 162.7 21.2  33d  16
2022 12 13 10  04 05 48.364   +22 33 00.78  .03540 1.0183 162.7 21.2  33d  16
2022 12 13 11  04 05 40.520   +22 35 47.97  .03546 1.0184 162.6 21.2  33d  16
2022 12 13 12  04 05 32.698   +22 38 34.65  .03551 1.0184 162.5 21.2  33d  16
2022 12 13 13  04 05 24.900   +22 41 20.81  .03556 1.0184 162.5 21.2  33d  15
2022 12 13 14  04 05 17.126   +22 44 06.46  .03561 1.0185 162.4 21.2  33d  15
2022 12 13 15  04 05 09.375   +22 46 51.60  .03567 1.0185 162.3 21.2  33d  15
2022 12 13 16  04 05 01.647   +22 49 36.23  .03572 1.0185 162.3 21.2  33d  15
2022 12 13 17  04 04 53.942   +22 52 20.35  .03577 1.0186 162.2 21.3  33d  15
2022 12 13 18  04 04 46.261   +22 55 03.96  .03583 1.0186 162.1 21.3  33d  15
2022 12 13 19  04 04 38.602   +22 57 47.07  .03588 1.0187 162.1 21.3  33d  15
2022 12 13 20  04 04 30.967   +23 00 29.68  .03593 1.0187 162.0 21.3  33d  15
2022 12 13 21  04 04 23.355   +23 03 11.78  .03599 1.0187 161.9 21.3  33d  15
2022 12 13 22  04 04 15.766   +23 05 53.39  .03604 1.0188 161.9 21.3  33d  15
2022 12 13 23  04 04 08.200   +23 08 34.50  .03609 1.0188 161.8 21.3  34d  15
2022 12 14 00  04 04 00.657   +23 11 15.11  .03615 1.0188 161.7 21.3  34d  15
2022 12 14 01  04 03 53.138   +23 13 55.22  .03620 1.0189 161.7 21.3  34d  15
2022 12 14 02  04 03 45.641   +23 16 34.85  .03625 1.0189 161.6 21.3  34d  15
2022 12 14 03  04 03 38.167   +23 19 13.98  .03631 1.0189 161.5 21.3  34d  14
2022 12 14 04  04 03 30.716   +23 21 52.62  .03636 1.0190 161.5 21.3  34d  14
2022 12 14 05  04 03 23.287   +23 24 30.77  .03642 1.0190 161.4 21.3  34d  14
2022 12 14 06  04 03 15.882   +23 27 08.43  .03647 1.0190 161.3 21.3  34d  14
2022 12 14 07  04 03 08.499   +23 29 45.61  .03652 1.0191 161.2 21.3  34d  14
2022 12 14 08  04 03 01.139   +23 32 22.30  .03658 1.0191 161.2 21.3  34d  14
2022 12 14 09  04 02 53.802   +23 34 58.51  .03663 1.0191 161.1 21.3  34d  14